Temp
17 17 17 17 18 18 18 18 18 18 18 18 18 19 19 19 18 18 18 18 19 19 18 18 18 18 18 18 18 18 18 17 17 16 16 16 15 15 15 15 15 15 15 15 15 15 15 15 14 14 14 14 14 13 13 13 13 13 13 13 13 13 13 13 13 13 13 13 13 13 13 13 13 13 13 13 13 13 13 13 13 13 13 14 14
17 17 17 17 17 17 18 18 18 18 18 18 18 19 19 19 19 18 19 19 19 19 19 18 18 18 18 18 18 18 17 17 17 16 16 15 15 15 15 15 15 15 15 15 15 15 15 15 14 14 14 14 14 13 13 13 13 13 13 13 13 13 13 13 13 13 13 13 13 13 13 13 13 13 13 13 13 13 13 13 13 13 13 13 13
18 17 17 17 17 17 18 17 18 18 18 18 18 18 18 19 19 19 19 19 19 19 19 19 18 18 18 18 18 17 17 17 16 16 15 15 15 15 15 15 15 15 15 15 15 15 15 15 14 14 14 14 14 14 13 13 13 13 13 13 13 13 13 13 13 13 13 13 13 13 13 13 13 13 13 13 13 13 12 12 13 13 13 13 13
18 17 18 17 17 18 18 17 17 17 18 18 18 18 18 18 18 19 19 19 19 19 19 19 19 18 18 18 17 17 17 17 16 16 15 15 15 15 15 15 15 15 14 14 15 15 15 14 14 14 14 14 14 13 13 13 13 13 13 13 13 13 13 13 12 12 12 12 12 12 12 12 12 12 12 12 12 12 12 12 12 12 12 12 12
18 17 17 17 17 18 18 17 17 17 17 17 18 18 18 18 18 19 19 19 19 19 19 19 18 18 18 17 17 17 17 16 16 16 16 16 15 15 15 14 15 14 14 14 15 15 14 14 14 14 14 14 14 14 13 13 13 13 13 13 13 13 12 12 12 12 12 12 12 12 12 12 12 12 12 12 12 12 12 12 12 12 12 12 12
18 18 17 17 17 18 18 18 17 17 17 17 18 18 18 18 18 18 18 19 19 19 19 18 18 18 17 17 17 17 17 16 16 16 16 16 15 15 15 15 14 14 14 15 14 14 14 14 14 14 14 14 14 14 14 13 13 13 13 13 12 12 12 12 12 12 12 12 12 12 12 12 12 12 12 12 12 12 12 12 12 12 12 12 12
18 18 17 17 17 18 18 18 17 17 17 17 17 17 17 18 18 18 18 18 19 19 18 18 18 17 17 17 17 17 17 16 16 16 16 16 16 15 15 15 14 14 14 15 14 14 14 14 14 14 14 14 14 14 14 13 13 13 13 13 12 12 12 12 12 12 12 12 12 12 12 12 12 12 12 12 12 12 12 12 12 12 12 12 12
18 18 18 17 17 18 18 18 17 17 17 17 17 17 17 18 18 18 19 18 18 18 18 17 17 16 17 17 17 17 16 16 16 16 16 16 16 15 15 15 14 14 14 14 14 14 15 15 14 14 14 14 14 14 14 14 13 13 13 13 12 13 12 12 12 12 12 12 12 12 12 12 12 12 12 12 12 12 12 12 12 12 12 12 12
18 18 18 17 17 17 18 18 18 17 17 17 17 17 17 18 17 18 19 18 18 17 17 16 16 16 16 16 16 16 16 16 16 16 16 16 16 15 15 15 14 15 15 14 14 15 15 15 14 14 14 14 14 14 14 14 14 13 13 13 13 13 12 12 12 12 12 12 12 12 12 12 12 12 12 12 12 12 12 12 12 12 12 12 12
18 18 18 18 17 17 18 18 17 18 18 17 17 17 17 18 17 18 18 18 18 18 17 16 15 15 15 16 16 16 16 16 16 16 16 16 16 15 15 15 15 15 15 15 15 15 15 15 15 14 14 14 14 14 14 14 14 13 13 13 13 13 13 12 12 12 12 12 12 12 12 12 12 12 12 12 12 12 12 12 12 12 12 12 12
17 18 18 17 17 17 18 18 17 17 18 18 18 18 17 17 17 17 18 18 18 18 17 16 15 15 15 15 16 16 16 16 16 15 15 16 15 15 15 15 15 15 15 15 15 15 15 15 14 14 14 14 14 14 14 14 13 13 13 13 13 13 13 13 12 12 12 12 12 12 12 12 12 12 12 12 12 12 12 12 12 12 12 12 13
16 17 17 17 17 18 18 18 17 17 18 18 18 18 17 17 17 18 17 16 16 16 16 15 15 15 15 15 15 16 16 15 15 15 15 15 15 15 15 15 15 15 15 15 15 15 15 14 14 14 14 14 14 14 14 14 13 13 13 13 13 13 13 13 12 12 12 12 12 12 12 12 12 12 12 12 12 12 12 13 13 13 13 13 13
16 16 17 17 17 18 18 17 16 16 17 18 18 18 17 17 17 17 17 16 15 15 15 15 15 15 15 15 15 15 15 15 15 15 15 15 15 15 15 15 15 15 15 15 15 15 15 14 14 15 14 14 14 14 14 14 14 14 13 13 13 14 13 13 13 12 12 12 12 12 12 12 12 12 12 12 12 12 12 13 13 13 13 13 13
16 16 16 16 17 18 18 16 16 16 17 17 18 18 17 17 17 17 16 16 15 14 15 15 15 15 15 15 15 15 15 15 15 15 15 15 15 15 15 15 15 15 15 15 15 15 15 14 14 15 15 14 14 14 14 14 14 14 13 13 13 14 13 13 13 12 12 12 12 12 12 12 12 12 12 12 12 13 13 13 13 12 13 13 13
16 16 16 16 17 18 18 16 15 16 17 17 17 17 17 17 17 17 16 15 15 15 15 15 15 15 15 15 15 15 15 15 15 15 14 14 14 15 15 15 15 15 15 15 15 14 14 15 15 15 15 14 14 14 14 14 14 14 14 13 13 13 13 13 13 13 13 13 12 12 12 12 13 13 13 13 13 13 13 13 13 13 13 13 13
15 16 15 16 17 18 17 16 16 16 17 17 17 17 17 17 17 17 16 15 15 15 15 15 15 15 15 15 15 15 15 15 14 14 14 14 14 14 14 15 15 14 14 15 15 15 15 15 15 14 14 14 14 14 14 14 14 14 14 14 14 13 13 13 13 13 14 13 13 13 13 13 13 13 13 13 13 13 13 13 13 13 13 12 12
16 16 15 15 16 17 17 16 16 16 16 17 18 17 17 17 17 17 17 16 15 15 15 15 15 16 16 15 15 15 15 15 15 14 14 14 14 14 14 14 15 14 14 14 14 14 14 15 15 14 14 15 15 14 14 14 14 14 14 14 14 14 13 13 13 14 14 14 14 14 14 14 13 13 13 13 13 13 13 13 13 13 13 12 12
17 16 16 15 16 17 16 16 16 16 16 17 18 18 17 17 17 17 17 17 16 15 15 15 15 15 16 16 16 16 15 15 15 14 14 14 14 14 14 14 14 14 14 14 14 14 14 14 14 14 14 15 15 15 14 14 14 14 14 14 14 14 14 13 13 14 14 14 14 14 14 13 13 13 13 13 13 13 13 13 13 13 12 12 12
16 16 15 15 15 16 16 15 15 16 16 17 17 17 17 17 17 17 17 17 16 15 15 15 15 15 16 16 16 16 16 15 15 14 15 15 14 14 14 14 14 14 14 14 14 14 14 14 14 14 14 15 15 14 14 14 14 14 14 14 14 14 13 13 14 14 14 14 14 14 14 13 14 13 13 13 13 13 13 13 13 12 12 12 12
15 15 15 15 15 15 15 15 16 16 16 17 17 17 17 17 17 17 17 17 17 16 15 15 15 15 16 16 16 16 16 16 15 15 15 15 14 14 14 14 14 14 14 14 14 14 14 14 14 14 14 14 14 14 14 14 14 14 14 14 14 14 13 13 14 14 13 14 14 14 13 13 14 14 13 13 13 13 13 13 12 12 12 12 12
15 15 15 15 15 15 15 16 16 16 16 17 17 17 17 17 17 17 17 16 17 17 16 15 15 16 16 15 15 16 15 16 16 15 15 14 14 14 14 14 14 14 14 14 14 14 14 14 14 14 14 14 14 14 14 14 14 14 14 14 14 14 14 14 14 14 13 13 14 14 13 14 14 13 14 13 13 13 13 13 12 11 11 12 12
15 15 15 14 15 15 16 16 17 17 17 17 17 17 17 17 17 17 17 17 16 16 17 17 16 16 16 16 15 15 15 15 15 15 14 14 15 14 14 14 14 14 14 14 14 14 14 14 14 14 14 14 14 14 14 14 14 14 14 14 14 14 14 14 14 14 14 13 13 14 14 14 13 13 14 13 13 14 14 13 12 11 12 12 12
15 15 15 15 15 15 16 16 17 17 17 17 17 16 17 17 17 17 17 17 17 17 17 17 16 16 16 16 16 16 16 16 15 15 15 14 14 14 14 14 14 14 14 14 14 14 14 14 14 14 14 14 14 14 14 13 14 14 14 14 14 14 14 14 14 14 14 14 14 14 14 14 13 13 14 14 14 14 13 13 12 12 12 12 12
15 14 15 15 15 15 16 16 17 17 17 17 16 17 17 17 17 17 17 17 17 17 17 16 16 16 16 16 16 17 17 17 17 16 16 15 14 14 14 14 14 14 14 14 14 14 14 14 14 14 14 14 14 14 14 13 13 14 14 14 14 14 14 14 14 14 14 14 14 13 13 13 13 13 14 14 14 13 13 13 13 12 12 12 12
15 15 15 15 15 16 16 16 17 17 17 17 16 17 17 17 17 17 17 17 17 17 17 17 17 16 16 16 16 16 17 17 17 17 16 15 14 14 14 14 14 14 14 14 14 14 14 14 14 14 13 13 13 13 13 13 13 14 14 14 14 14 14 14 14 14 14 14 13 13 13 13 12 13 14 13 13 12 12 13 13 12 12 11 11
15 16 16 16 16 16 16 17 17 17 17 16 16 17 17 17 17 17 17 17 17 17 17 17 17 17 17 17 16 17 17 17 17 16 16 16 15 14 14 14 14 14 14 14 14 14 14 13 13 13 13 13 13 13 13 13 14 14 14 14 14 14 14 14 14 13 14 14 13 13 13 13 12 13 13 13 12 12 12 13 12 12 11 11 10
15 16 16 16 16 16 16 17 17 17 16 16 16 17 17 17 17 17 17 17 17 17 17 17 17 17 17 17 17 17 17 17 16 16 17 16 16 15 14 14 14 14 14 14 14 14 14 13 13 13 13 13 13 12 13 13 14 14 14 14 13 13 14 13 13 13 14 13 13 13 13 13 12 13 13 13 13 13 13 12 12 12 11 11 11
16 16 17 17 17 17 17 17 17 16 16 16 16 17 17 17 17 17 17 17 17 17 17 17 17 17 17 17 17 17 17 16 16 16 16 17 17 16 15 15 14 14 14 14 14 14 14 13 13 13 13 13 13 13 13 14 14 14 14 13 13 13 13 13 13 13 13 13 13 13 13 13 13 13 13 13 13 13 13 12 12 12 11 11 11
16 16 17 17 17 17 17 17 17 17 17 17 16 17 17 17 17 17 17 17 17 17 17 17 17 17 17 17 17 17 17 16 16 16 16 16 16 16 16 16 15 14 14 14 14 13 13 13 13 14 14 14 14 14 14 14 14 14 14 13 13 13 12 12 13 13 13 13 12 12 13 13 13 13 13 13 13 13 13 13 12 12 12 12 12
16 16 17 17 17 17 17 17 17 17 17 17 17 17 17 17 17 17 17 17 17 17 17 17 17 17 17 17 17 17 17 16 16 16 16 16 16 16 16 16 16 15 14 14 14 13 13 13 13 14 14 14 14 14 14 14 14 14 14 14 13 13 13 13 13 13 13 13 13 12 12 13 13 13 14 14 14 14 13 13 13 12 12 12 12
16 16 16 17 17 17 17 17 17 17 17 17 17 17 17 17 17 17 17 17 17 17 17 17 17 17 17 17 17 17 17 16 16 16 16 16 16 16 16 16 16 16 15 15 15 14 13 13 14 14 14 14 14 15 14 14 14 14 14 14 14 14 14 14 13 13 13 13 13 13 13 13 14 14 14 14 14 14 14 13 13 13 12 12 12
15 16 16 17 17 17 17 17 17 17 17 17 17 17 17 17 17 17 17 17 16 16 16 16 16 16 16 17 17 16 17 16 16 16 16 16 16 16 16 15 15 16 15 16 15 14 13 14 14 14 14 14 15 15 15 15 14 14 14 14 14 14 14 14 13 13 13 13 13 13 13 14 14 14 14 14 14 14 13 13 13 13 12 12 12
16 16 17 17 17 17 17 17 17 17 17 17 17 17 17 17 17 17 17 17 16 16 16 16 16 16 16 16 16 16 16 16 16 16 16 16 16 15 16 15 15 15 15 16 15 13 13 14 14 14 14 14 15 15 15 15 15 14 14 14 14 13 13 13 13 13 13 13 13 13 14 14 14 14 14 14 14 13 13 13 13 13 12 12 12
17 17 17 17 17 17 18 18 18 18 18 17 17 17 17 17 17 17 17 17 16 16 16 16 16 16 16 16 16 16 16 16 16 16 16 16 16 16 16 15 15 15 15 16 16 15 14 14 14 14 14 14 15 15 15 15 15 14 14 14 14 13 13 13 13 13 13 13 13 14 14 14 14 14 13 13 13 13 13 13 13 13 13 12 12
17 17 17 17 17 18 18 18 18 18 18 18 18 18 18 17 17 17 17 17 16 16 16 16 16 16 16 16 16 16 16 16 16 16 16 16 16 16 16 15 15 16 15 16 16 16 15 15 14 14 14 14 15 15 14 14 14 14 14 14 14 14 14 14 14 14 13 13 13 14 14 14 13 13 13 13 13 13 13 13 13 13 13 13 13
17 17 17 17 17 18 18 18 18 18 18 18 18 18 18 18 17 17 17 17 17 17 17 17 16 16 16 16 16 16 16 16 16 17 17 17 16 16 16 16 16 16 16 16 16 16 16 16 15 15 15 15 15 14 14 14 14 14 14 14 14 14 14 14 14 14 14 13 13 13 14 13 13 13 13 13 13 13 13 13 13 13 13 13 12
17 17 17 17 17 17 18 18 18 18 18 18 18 18 18 17 17 17 17 17 17 17 17 17 17 17 16 16 16 16 16 17 17 17 17 17 17 16 16 16 16 16 16 16 16 16 16 16 16 15 14 14 14 14 14 14 14 14 14 14 14 14 14 14 14 14 13 13 13 13 13 13 13 13 13 13 13 13 13 13 13 13 12 13 12
16 17 17 16 17 17 17 17 17 17 18 18 18 18 17 17 17 17 17 17 17 17 17 17 17 17 17 17 17 17 17 17 17 17 17 17 17 17 17 17 17 16 16 16 15 15 16 16 16 15 15 14 14 14 14 14 14 14 14 14 14 14 14 14 14 14 13 13 13 13 13 13 13 13 13 13 13 13 12 12 12 12 12 12 12
16 16 16 16 17 17 17 17 17 17 17 17 17 17 17 17 17 17 18 18 18 18 18 17 17 17 17 16 16 17 17 17 17 17 17 17 18 18 18 17 17 17 16 15 15 15 15 15 15 15 15 14 13 13 14 14 13 13 14 14 14 14 14 14 14 14 14 14 14 13 13 13 13 13 13 13 12 12 12 12 12 12 12 12 12
16 16 15 16 17 17 17 17 17 17 17 17 17 17 17 17 18 18 18 18 18 18 17 17 17 17 16 16 16 17 17 17 17 18 18 18 18 18 18 18 17 17 16 16 15 15 15 14 14 15 14 14 13 13 13 13 13 13 14 14 14 15 15 14 15 14 14 14 14 14 14 14 14 13 13 13 13 13 13 12 12 12 12 12 12
16 15 15 16 17 17 17 17 17 17 17 17 17 17 18 18 18 18 18 18 18 18 17 17 16 16 16 16 16 17 17 17 17 17 17 17 18 18 18 18 18 17 17 16 16 15 14 14 14 14 14 13 13 13 13 13 14 14 14 14 14 15 15 14 15 15 14 14 14 14 14 14 14 14 14 13 13 13 13 13 13 13 13 12 12
15 14 15 16 17 17 17 17 17 17 17 17 17 18 18 18 18 18 18 17 17 17 17 16 16 16 15 16 16 16 17 17 17 17 17 17 17 17 17 17 17 17 17 17 16 16 15 15 14 14 13 13 13 14 14 14 14 14 14 14 14 14 13 13 14 15 14 14 14 14 15 14 14 14 14 14 14 14 13 13 13 13 12 12 12
14 14 15 16 16 16 17 17 17 17 17 17 17 18 18 18 18 18 17 17 17 17 17 16 16 15 15 16 16 16 16 17 17 17 17 17 17 17 16 16 16 17 17 17 17 16 16 16 15 14 14 14 14 14 14 14 14 14 14 14 14 13 13 13 13 14 14 14 13 14 14 14 13 14 14 14 14 14 13 13 12 12 12 11 11
14 14 15 16 16 16 16 17 17 17 17 17 17 17 18 18 18 17 17 16 16 16 16 16 16 16 16 16 16 16 16 16 16 16 16 16 16 16 16 16 16 16 16 16 16 16 16 16 15 15 15 15 15 15 14 14 14 14 14 13 13 13 12 12 12 12 13 13 12 12 13 13 13 12 13 13 13 12 12 12 12 11 11 11 11
14 14 15 16 16 16 16 16 17 17 17 17 17 17 18 18 17 17 16 16 16 16 16 16 16 16 16 16 16 16 16 16 16 16 16 16 16 16 16 16 16 16 15 15 15 15 15 15 15 14 14 14 14 14 14 14 14 13 13 13 13 12 12 11 12 12 12 11 11 11 12 13 12 11 12 13 12 11 11 11 11 11 11 10 10
14 14 15 15 15 15 15 16 16 16 17 17 17 17 17 17 17 17 16 16 16 15 15 15 16 15 15 15 15 15 15 15 15 15 15 15 15 15 15 15 15 15 15 15 14 14 14 14 14 13 13 13 13 13 13 13 13 13 12 12 12 12 12 12 12 12 12 11 11 10 11 12 12 11 11 12 11 10 10 11 11 11 10 10 10
13 13 14 14 14 14 14 15 15 16 16 16 16 16 16 16 16 16 16 16 16 15 15 15 15 15 15 15 15 15 15 15 15 15 15 15 15 15 14 14 14 14 14 14 14 14 14 13 13 13 13 13 13 13 13 12 12 12 12 12 12 12 12 12 12 12 12 11 11 10 10 11 12 11 11 11 10 10 10 10 10 10 10 10 10
11 12 13 13 13 13 14 14 15 14 14 14 14 14 14 15 16 16 16 16 16 16 16 15 15 15 15 15 15 15 15 15 15 14 14 14 15 15 14 14 13 13 13 13 13 13 13 13 13 13 13 13 12 12 12 12 12 12 12 12 11 11 11 11 11 11 11 11 10 10 10 11 11 11 11 10 10 10 10 10 10 10 10 10 10
10 11 12 12 12 12 12 13 13 13 12 12 13 13 14 14 15 15 16 16 16 16 16 15 15 15 15 15 15 15 15 15 15 14 14 14 14 14 14 13 13 13 12 12 12 12 12 12 12 12 12 12 12 12 12 12 12 12 11 11 11 11 11 10 10 10 10 10 10 10 9 10 10 10 10 10 10 10 10 10 10 10 10 10 9
9 10 11 11 11 12 12 12 12 12 12 12 12 13 14 14 15 15 15 15 15 15 15 15 14 14 14 15 15 15 15 15 15 14 14 14 14 13 13 13 12 12 12 12 12 12 12 12 12 12 12 11 11 11 11 11 11 11 11 11 11 11 11 10 10 10 10 10 10 9 9 10 9 9 9 9 9 9 9 9 9 9 9 9 9
9 10 11 11 10 11 12 12 12 13 13 12 13 13 14 14 14 14 14 14 13 13 13 13 13 13 14 14 14 14 14 13 13 13 13 13 13 13 12 12 12 12 11 11 11 11 11 11 11 11 11 11 11 11 11 11 11 11 11 11 11 11 10 10 10 10 10 9 9 9 9 9 9 9 9 9 9 8 8 8 8 8 9 9 8
Height
830 831 831 831 831 832 834 834 835 836 837 838 840 841 841 842 843 843 844 844 845 845 846 847 848 848 849 850 851 852 853 853 854 854 855 855 856 856 856 857 858 859 860 860 860 860 860 860 859 859 859 860 859 859 859 858 858 859 860 860 861 861 862 862 862 862 862 862 862 862 862 862 862 861 861 862 861 861 861 861 861 860 860 859 859
829 830 830 831 831 832 833 834 835 836 837 838 839 841 841 842 843 843 844 845 845 846 846 847 848 848 849 850 851 852 853 854 854 855 856 856 857 857 857 858 859 860 860 861 861 861 861 861 860 860 860 860 860 860 860 860 860 860 860 861 861 862 862 863 863 863 863 863 863 863 863 862 862 862 862 862 862 862 862 862 862 862 861 861 860
828 829 829 830 831 832 833 834 835 836 837 838 839 840 841 842 842 843 843 844 845 846 846 847 847 848 849 850 851 852 853 854 855 855 856 857 857 857 858 859 860 860 861 862 862 862 862 862 861 861 861 861 861 861 861 861 861 860 861 861 862 863 863 864 864 864 864 863 864 864 864 864 863 863 863 863 863 863 863 863 863 863 863 862 862
827 828 828 829 830 831 832 833 834 836 837 838 839 840 840 841 842 842 843 844 845 846 846 847 848 849 849 850 851 852 854 855 855 856 857 857 858 858 858 859 860 861 862 862 863 862 862 862 862 862 862 862 862 862 862 862 862 861 862 862 862 863 864 864 864 864 865 864 865 865 865 865 865 864 864 864 864 864 864 864 864 864 864 864 863
825 826 827 828 829 830 831 832 833 835 836 837 838 839 840 841 841 842 843 844 845 845 846 847 848 849 850 850 851 853 854 855 855 856 857 858 858 858 858 859 860 861 862 863 863 863 863 863 863 863 863 863 863 863 863 863 862 863 863 863 863 864 864 865 865 865 865 866 866 866 866 866 866 866 866 866 865 865 865 865 865 865 865 865 865
823 824 826 827 828 829 830 831 833 834 836 837 838 838 839 840 841 842 843 844 844 845 846 847 848 849 850 851 851 853 854 855 856 856 857 858 858 859 859 860 861 862 863 863 863 864 864 863 863 863 864 864 864 864 864 864 863 864 864 864 864 864 865 865 866 866 866 867 867 867 867 867 867 867 867 867 867 867 867 867 867 867 867 867 866
822 823 824 826 827 828 829 830 832 834 835 837 837 838 839 840 841 841 842 843 844 845 846 846 848 849 850 851 852 853 854 855 856 857 857 858 858 859 859 860 861 862 863 863 864 864 864 864 864 864 864 865 865 865 865 865 864 864 865 865 865 865 866 866 866 867 867 868 868 868 868 868 868 868 868 868 868 868 868 868 868 868 868 868 868
821 822 823 825 827 828 829 830 831 833 835 836 837 838 839 840 841 841 842 843 844 845 846 847 848 849 850 851 852 853 854 856 857 857 858 858 859 859 860 861 862 863 863 864 864 864 864 864 864 865 865 865 866 866 866 866 865 865 866 866 866 866 866 866 867 868 868 869 869 869 869 869 869 869 870 870 870 870 870 869 869 869 870 870 870
820 821 822 825 826 828 829 830 831 833 835 836 837 837 838 839 841 841 842 842 843 844 845 847 848 849 850 851 852 853 854 856 857 858 858 858 859 859 860 861 863 863 864 864 864 865 865 865 865 865 866 866 866 866 866 866 866 866 866 866 867 867 867 867 868 868 869 870 870 870 871 871 871 871 871 871 871 871 871 871 871 871 871 871 871
819 820 822 824 825 827 828 829 831 833 835 836 837 838 838 839 840 841 842 842 843 844 845 846 848 850 851 851 852 853 855 856 857 858 858 859 859 859 860 861 863 863 864 864 864 865 865 865 865 866 866 866 866 866 866 867 867 867 867 867 867 868 868 869 869 869 870 870 871 871 872 872 872 872 872 872 872 872 872 872 872 872 872 872 872
818 820 821 823 824 826 827 828 831 833 834 836 837 837 838 839 840 841 842 842 843 843 844 846 848 850 851 852 853 854 855 856 858 858 859 859 859 860 861 861 862 863 863 864 864 865 865 865 866 866 866 866 866 866 867 867 867 867 867 867 868 868 869 869 870 870 870 871 871 872 873 873 873 873 874 874 874 874 874 874 874 874 874 874 874
818 819 820 822 823 824 825 827 830 833 833 835 836 836 837 838 839 840 841 842 843 844 844 845 848 850 852 853 853 854 855 856 858 858 859 859 860 860 861 862 862 863 863 864 864 865 865 865 865 866 866 866 867 867 867 867 867 867 867 867 868 869 869 870 870 871 871 872 872 872 873 874 874 874 874 875 875 875 875 875 875 875 875 875 875
818 819 820 821 821 822 823 826 830 832 832 832 834 835 836 838 839 840 841 842 843 844 845 846 848 851 852 853 854 855 855 857 858 858 858 859 860 860 861 861 862 862 863 863 864 865 865 865 865 866 866 867 867 867 867 867 867 867 867 868 869 869 870 870 871 871 872 872 872 873 874 874 875 875 875 875 875 876 876 876 876 876 876 876 876
818 818 818 819 820 820 822 826 829 831 830 831 833 834 836 837 838 839 840 842 843 844 845 846 848 850 851 853 854 855 856 856 857 858 858 859 860 860 860 861 861 862 862 863 864 864 865 865 865 866 866 867 867 867 868 868 868 867 868 868 869 870 870 871 871 872 872 872 873 873 874 875 875 876 876 876 876 876 877 877 877 877 877 877 877
817 817 817 818 819 819 820 824 828 829 829 830 831 833 834 836 836 838 839 841 843 844 845 845 847 849 852 853 854 855 856 856 857 858 858 859 859 860 860 860 861 861 862 863 863 864 864 865 865 865 866 867 867 867 868 868 868 868 868 868 869 870 871 871 872 872 872 872 873 873 874 875 876 876 876 877 877 877 878 878 878 878 878 879 879
815 816 817 817 818 818 820 823 826 827 828 829 830 831 833 834 835 836 837 840 842 844 845 845 846 848 851 853 854 855 856 856 856 858 858 858 859 859 860 860 860 861 862 862 863 864 864 864 865 865 866 867 867 867 867 868 868 868 868 869 869 870 871 872 872 872 872 873 873 874 875 875 876 877 877 877 877 878 878 878 879 879 879 880 879
813 814 816 816 816 817 819 822 825 826 827 828 829 830 832 833 834 835 836 837 839 842 844 845 846 846 848 850 853 855 855 854 855 857 858 858 859 859 859 859 860 861 861 862 862 863 864 864 864 865 866 866 867 867 868 868 868 868 869 869 869 870 871 872 872 873 873 874 874 875 876 876 877 877 877 878 878 878 879 879 879 880 880 880 880
810 811 814 815 815 816 819 821 824 825 826 827 828 830 831 832 832 833 834 836 837 840 843 844 846 847 846 846 848 849 850 852 855 857 857 858 858 858 858 859 859 860 860 861 862 862 863 863 864 864 865 866 867 867 868 868 868 868 869 869 870 870 871 872 872 873 874 875 875 876 876 877 877 877 878 878 878 878 879 879 880 880 880 881 880
808 809 811 813 814 816 818 821 823 824 825 826 827 829 830 831 831 832 834 835 837 838 841 843 844 846 846 845 845 845 846 849 852 855 856 857 857 858 858 858 859 859 860 860 861 862 862 863 864 864 865 866 866 867 867 868 868 868 869 869 870 871 871 872 873 874 875 875 876 877 877 877 877 877 878 878 878 879 879 880 880 880 881 881 881
808 808 809 811 813 815 818 820 822 823 824 825 826 828 828 829 830 832 833 834 835 837 839 840 842 843 844 845 845 845 846 847 849 851 854 856 857 857 858 858 859 859 859 860 861 861 862 863 863 864 865 866 866 867 867 867 868 868 869 869 870 870 871 872 873 874 875 875 876 876 877 877 877 877 878 878 879 879 879 880 880 881 881 881 881
808 808 809 810 812 815 817 818 820 821 822 824 825 827 828 829 829 831 832 833 834 836 837 838 839 840 842 843 844 845 846 847 848 849 851 854 856 856 857 858 858 859 859 860 860 861 862 862 863 864 864 865 866 866 867 867 867 868 868 869 870 870 871 872 873 874 874 875 875 876 876 877 877 877 878 878 879 879 880 880 881 881 881 881 881
807 807 808 809 811 813 815 817 818 819 820 822 824 826 827 828 829 830 831 832 833 834 835 836 838 839 841 842 843 844 846 847 848 849 850 852 854 855 856 857 858 858 859 860 860 861 861 862 863 864 864 865 865 866 866 866 867 868 868 869 869 870 871 871 872 873 874 874 875 875 876 877 877 877 878 878 879 880 880 880 881 881 882 882 882
804 804 806 808 809 811 813 815 816 818 819 820 823 825 826 827 828 829 831 831 832 833 834 835 837 839 840 841 842 843 843 845 846 847 848 850 852 854 855 856 857 858 859 860 860 860 861 862 862 863 864 864 865 865 866 866 866 867 868 868 869 870 870 871 872 873 873 874 874 875 876 876 877 877 878 878 879 879 880 880 881 881 882 882 882
802 802 804 806 808 810 812 813 815 816 818 819 822 824 825 826 827 829 830 831 832 833 834 835 836 838 839 841 842 842 843 843 844 845 847 848 850 853 854 855 856 857 858 859 860 860 861 861 862 862 863 864 864 864 865 866 866 867 867 868 868 869 870 870 871 872 873 873 874 875 875 876 877 877 878 879 879 880 880 880 881 881 882 882 882
801 801 802 804 807 809 810 812 813 815 816 818 821 822 823 825 826 828 829 830 831 832 833 834 836 837 839 840 841 842 842 843 844 845 846 848 849 851 854 855 856 857 858 859 859 860 861 861 861 862 862 863 863 864 864 865 865 866 867 867 868 868 869 869 871 872 872 873 874 875 875 876 878 878 878 879 879 880 881 881 881 881 882 882 883
799 799 801 803 806 808 810 812 813 814 815 817 819 821 822 824 825 827 828 829 830 831 833 834 835 837 838 839 840 841 842 842 843 844 846 847 848 850 852 855 856 857 858 859 859 860 860 861 861 861 862 862 862 863 863 864 865 865 866 866 867 867 868 869 870 871 872 873 874 874 875 876 878 878 879 879 880 881 881 882 882 882 882 883 883
797 798 800 802 805 808 810 811 812 814 815 817 818 820 822 823 825 826 827 828 830 831 832 834 835 836 837 838 839 840 841 842 843 844 845 846 847 848 850 853 856 857 857 858 859 860 860 860 861 861 861 861 862 862 863 863 864 864 865 865 866 867 867 868 869 870 872 873 874 874 875 876 877 878 879 879 880 881 882 882 883 883 883 883 883
796 798 800 802 804 807 808 810 812 813 815 816 818 819 820 822 824 825 826 828 829 830 832 833 834 835 836 837 838 839 840 841 842 843 844 845 846 847 848 850 853 856 858 859 859 859 859 860 860 860 861 861 861 862 862 862 863 864 864 865 865 866 867 868 869 870 872 873 873 874 875 876 877 878 879 880 880 881 882 882 883 883 883 883 884
796 798 800 801 803 805 807 809 811 812 814 815 816 817 819 821 822 824 826 827 829 830 831 832 833 835 835 836 837 838 839 840 841 842 843 844 845 846 847 848 850 853 857 859 858 858 858 859 859 860 860 861 861 861 862 862 863 863 864 864 865 866 867 868 869 870 872 872 873 874 876 877 878 879 879 880 880 881 882 882 883 883 883 883 883
795 797 799 801 802 804 806 808 810 811 813 814 815 816 818 820 822 824 825 826 828 829 831 832 833 834 835 836 837 838 839 840 841 842 842 843 845 846 847 848 849 851 854 856 856 856 857 858 858 859 860 860 860 861 861 862 863 863 864 865 866 866 867 868 869 870 871 873 874 875 876 877 878 878 879 880 880 881 882 882 883 883 883 883 883
795 796 798 800 801 803 805 807 809 811 812 813 814 816 818 820 822 823 825 826 827 829 830 832 833 834 835 835 836 837 838 839 840 841 842 843 844 845 847 848 849 851 852 853 853 854 855 856 857 858 859 859 860 860 861 862 863 863 864 865 866 867 867 868 869 870 872 873 874 875 876 877 878 878 879 880 880 881 881 882 882 883 883 883 883
795 796 798 799 800 802 804 807 808 810 812 813 814 816 818 820 821 823 824 826 827 829 830 831 832 833 834 835 836 837 837 838 839 840 841 842 843 845 846 847 849 850 852 852 852 853 854 855 856 857 858 859 859 860 861 862 863 864 865 865 866 867 868 869 869 871 872 873 874 875 876 877 877 878 879 879 880 880 881 881 882 882 883 883 883
795 796 798 799 799 801 804 806 808 810 811 813 814 816 818 820 821 823 824 826 827 828 829 830 831 832 833 834 835 836 837 837 838 839 840 841 843 844 845 847 848 849 851 851 852 852 853 854 855 856 857 858 859 860 860 862 863 864 865 866 866 867 868 869 870 871 872 873 874 874 875 876 877 878 878 879 879 880 880 880 881 881 882 882 882
795 796 798 798 799 800 802 805 807 809 811 813 814 816 818 819 821 823 824 825 826 827 828 829 830 831 832 833 834 835 836 837 837 838 839 840 842 843 844 846 847 848 850 851 851 852 852 853 854 855 856 857 858 859 860 861 863 864 865 866 866 867 868 869 869 870 871 872 873 874 875 876 876 877 877 878 878 879 879 880 880 880 881 881 881
795 796 797 799 799 799 801 804 807 809 811 813 814 816 818 819 821 822 823 824 825 826 827 828 829 830 831 833 833 834 835 836 837 838 839 840 841 842 844 845 846 847 849 850 850 851 851 852 853 854 855 856 857 858 860 861 862 864 865 866 866 867 867 868 869 870 871 871 872 873 874 874 875 876 876 877 877 878 878 879 879 879 880 880 880
795 796 797 799 799 799 801 803 806 809 811 813 814 816 817 819 820 821 822 824 825 826 827 828 829 830 831 832 833 834 835 836 837 837 839 840 841 842 843 844 845 847 848 849 850 850 850 851 852 853 854 856 856 857 859 860 861 863 864 865 865 866 867 867 868 869 870 870 871 872 873 873 874 875 875 876 877 877 878 878 878 879 879 879 879
793 795 797 799 799 799 801 803 806 809 811 813 814 816 817 818 820 821 822 823 824 825 826 827 828 829 831 832 833 834 835 836 837 837 838 839 840 841 842 843 844 846 847 848 849 849 849 850 851 852 854 855 856 857 858 859 860 861 862 863 864 865 866 866 867 868 869 869 870 871 872 872 873 874 874 875 876 876 877 877 877 877 878 878 878
793 795 797 799 800 800 801 803 807 809 811 813 814 815 817 818 819 820 821 822 823 824 825 826 828 829 830 831 832 834 835 836 836 837 838 839 840 841 841 842 843 844 845 846 847 848 849 849 851 852 852 853 854 855 856 858 859 860 861 862 863 864 864 865 866 867 868 868 869 869 870 871 872 872 873 874 874 875 875 875 875 876 876 876 876
793 795 798 801 801 801 802 804 806 809 810 812 814 815 817 818 819 820 821 822 823 823 825 826 827 829 830 831 833 834 835 836 837 837 838 839 839 840 841 841 842 843 844 845 846 847 848 849 850 851 852 852 853 854 855 857 858 859 860 860 861 862 863 863 864 865 866 867 867 868 868 869 870 870 871 872 872 873 873 873 873 874 874 874 874
794 796 798 801 801 802 803 804 806 808 810 812 813 815 816 818 819 820 821 822 822 823 824 826 827 829 830 831 833 835 835 836 837 837 838 839 839 840 840 840 841 842 843 844 845 846 847 848 849 850 851 852 853 854 855 855 856 857 857 858 859 859 861 862 862 863 864 865 865 866 866 867 867 868 868 869 869 870 870 870 871 871 871 871 871
796 797 798 800 801 801 803 804 806 808 809 811 813 815 816 817 819 820 820 821 822 823 824 826 828 829 830 832 834 834 835 836 837 838 838 839 840 840 840 840 841 842 842 843 844 845 847 848 849 850 851 851 852 853 853 854 854 855 856 857 857 858 859 860 860 861 862 863 863 863 863 864 865 865 866 866 866 866 867 867 867 867 868 868 869
797 798 799 800 801 802 803 805 806 808 810 811 813 815 816 817 818 819 820 821 822 823 824 826 828 830 831 833 834 835 836 837 838 839 839 840 840 840 841 841 842 842 843 843 844 845 846 847 848 849 849 850 850 851 852 852 853 854 855 856 856 857 858 858 858 859 860 861 861 861 861 862 863 863 863 863 863 863 864 864 864 865 865 866 866
796 798 799 799 800 802 804 805 807 808 810 811 813 815 816 817 818 819 820 821 822 823 825 826 828 830 832 833 834 835 837 838 839 840 840 841 841 841 841 842 843 843 843 844 844 845 846 846 847 848 848 849 849 850 851 852 853 854 854 855 855 856 857 857 856 857 859 860 860 859 859 860 861 861 861 861 861 861 861 862 862 863 863 864 864
796 797 798 799 800 803 804 806 807 809 810 812 813 815 816 817 817 818 819 821 822 824 825 827 829 831 832 834 835 836 837 838 839 840 841 841 841 842 842 842 843 843 844 845 845 846 846 847 847 848 849 849 850 850 851 852 853 853 854 854 855 855 856 857 856 856 857 858 859 858 857 857 858 858 858 858 858 859 859 859 860 860 860 860 860
796 797 798 799 801 803 805 806 808 809 811 812 813 814 815 816 817 818 819 821 823 825 827 828 830 831 833 834 835 836 837 838 839 840 841 841 842 842 842 843 843 844 844 845 846 846 847 847 848 849 849 850 851 851 851 852 852 853 853 853 853 854 855 855 855 855 856 856 857 857 856 855 855 855 855 855 855 856 856 856 856 855 855 856 856
797 798 799 800 802 804 806 807 809 810 811 813 814 815 815 816 816 818 820 822 824 826 828 829 830 832 833 834 835 836 837 838 839 840 841 841 842 842 843 843 844 844 845 845 846 847 847 848 848 849 850 850 850 851 851 852 852 852 852 852 853 853 853 854 854 854 854 854 854 855 854 853 853 852 852 852 852 853 853 853 853 852 853 853 853
798 798 799 801 803 805 807 808 809 811 812 813 814 815 816 816 817 818 820 822 825 826 828 829 830 832 833 833 834 835 837 838 839 839 840 841 841 842 843 843 844 844 845 846 846 847 847 848 848 849 849 850 850 850 850 851 851 851 852 852 852 853 853 853 853 853 853 853 853 853 853 852 851 851 850 850 850 850 850 850 850 850 851 851 850
801 800 800 803 805 806 808 810 811 812 813 814 815 816 817 817 818 819 821 823 825 827 828 829 830 831 832 833 834 835 836 837 838 839 840 840 841 841 842 843 844 844 845 846 847 847 847 848 848 849 849 849 849 850 850 850 851 851 851 851 851 852 852 852 852 852 852 852 852 852 851 851 851 850 850 849 849 849 849 849 848 848 848 848 848
803 802 802 806 807 808 810 811 812 813 814 816 818 818 818 819 819 820 821 823 825 826 828 829 830 831 832 833 834 835 837 838 839 840 840 841 841 841 842 843 844 845 845 846 847 847 847 848 848 849 849 849 849 849 850 850 850 850 851 851 851 851 851 852 852 852 852 851 851 851 851 850 850 850 850 849 849 848 848 847 847 847 846 846 846
805 804 805 808 809 810 812 813 814 814 816 818 819 820 820 821 821 821 822 823 824 825 827 828 830 831 832 833 834 835 837 838 839 840 841 841 842 842 842 843 844 845 845 846 846 846 847 847 848 848 848 848 849 849 850 850 850 850 850 850 850 850 851 851 851 851 851 851 851 851 850 850 850 849 849 849 848 848 847 847 847 846 846 845 845
808 807 809 811 811 812 814 815 816 816 817 819 821 822 823 823 824 824 824 825 825 826 828 829 830 832 832 833 834 835 836 837 838 839 840 841 842 842 842 843 844 845 845 846 846 846 846 847 848 848 849 849 849 849 849 849 850 850 850 850 850 850 850 850 850 850 850 850 850 850 850 850 850 850 849 848 848 847 847 847 847 846 845 845 844
Wind_Speed
16 16 15 14 14 15 14 12 14 15 15 14 13 15 16 16 16 14 12 11 9 8 8 9 9 8 8 9 9 7 7 7 7 8 8 10 11 10 10 9 7 6 6 7 7 7 7 7 8 8 8 8 8 8 9 10 11 10 9 8 8 10 9 7 6 6 6 6 7 7 7 6 6 6 6 7 8 9 10 10 10 11 11 12 12
15 15 15 15 15 15 15 13 13 15 16 15 14 14 15 15 15 13 11 10 8 7 8 8 8 9 9 9 9 8 7 7 7 7 8 9 10 9 9 8 8 7 6 7 6 6 7 6 6 6 6 7 7 8 8 9 10 9 9 8 9 10 9 7 6 6 5 5 5 6 6 6 6 6 6 7 7 8 9 9 9 10 10 10 10
15 15 15 16 16 14 14 15 14 14 15 15 15 14 15 14 14 12 10 9 8 7 7 8 8 9 10 9 9 9 8 8 8 8 8 8 9 9 8 8 9 8 6 6 6 6 6 5 5 5 6 6 7 7 7 8 9 9 8 8 9 9 8 7 6 6 6 5 6 7 6 7 7 7 8 9 9 9 9 9 10 10 10 10 9
16 15 14 14 15 14 14 15 16 16 16 15 15 15 14 13 13 12 10 9 8 7 7 7 7 9 10 10 10 10 10 9 9 9 8 8 9 9 9 9 8 8 7 7 6 5 6 5 5 5 5 5 6 6 7 8 8 8 9 8 8 8 8 7 6 7 7 7 7 7 7 8 8 8 9 10 10 10 9 10 11 11 10 10 9
16 16 14 14 14 13 15 15 15 17 17 16 16 16 14 13 12 11 10 9 8 8 8 8 9 10 11 11 11 11 10 10 9 9 9 9 9 9 9 9 8 7 8 7 6 5 5 5 5 5 5 5 5 5 6 8 8 8 8 7 8 8 7 7 7 7 7 7 8 8 8 8 9 9 10 10 10 10 11 12 13 13 12 13 13
17 16 16 15 14 13 14 14 13 14 17 17 17 16 15 13 13 12 10 9 9 9 9 10 11 12 13 13 12 12 11 10 10 9 9 9 8 9 9 8 8 7 6 7 6 5 5 4 4 4 5 5 5 4 6 7 7 7 7 7 8 8 7 7 7 7 7 8 9 9 9 9 10 10 10 11 11 12 13 14 15 15 15 16 16
18 17 17 16 15 14 14 13 12 12 15 18 18 17 15 14 13 13 11 10 11 11 11 11 12 14 15 15 14 13 12 11 10 9 9 8 9 9 9 8 7 5 6 8 7 5 5 5 5 4 5 5 4 5 5 6 6 7 7 7 8 8 7 7 7 7 7 8 9 9 9 10 10 11 11 12 12 12 13 13 14 15 15 15 16
19 18 17 16 15 15 15 13 12 12 14 16 18 17 16 14 13 13 14 13 13 13 12 11 12 14 16 16 15 14 12 11 10 10 9 9 9 8 8 7 6 6 8 9 7 5 6 7 7 6 6 5 5 6 5 5 6 6 6 6 7 7 7 8 7 7 8 8 9 9 9 10 11 12 12 12 13 13 13 13 13 13 14 15 16
19 18 17 17 17 16 16 14 13 13 13 15 17 17 16 14 13 13 14 14 14 14 12 10 11 13 15 16 16 14 13 12 10 10 10 9 9 9 7 7 6 7 9 8 7 7 8 8 8 7 6 5 5 5 6 6 5 5 6 6 6 6 7 7 7 7 8 8 8 9 10 11 11 12 12 13 13 12 12 12 13 14 14 16 17
20 19 18 18 18 17 17 16 14 14 15 16 17 17 16 15 15 14 14 14 15 14 13 11 11 11 13 14 15 14 12 12 11 11 10 10 9 9 8 8 7 8 9 8 8 8 8 7 7 7 7 6 5 4 5 5 5 5 5 5 6 7 6 6 7 7 7 8 8 9 10 11 11 11 12 12 12 12 13 14 14 15 16 16 17
20 19 18 18 17 17 18 16 14 16 18 18 18 18 17 17 17 16 15 13 13 14 14 13 12 11 11 12 13 13 12 12 12 11 10 9 9 9 8 8 8 8 8 8 8 8 7 5 4 5 6 6 5 4 4 4 5 6 5 5 6 6 5 5 6 7 6 7 8 9 10 11 11 11 11 11 12 13 15 15 15 15 15 15 15
19 18 18 17 16 17 18 16 15 18 21 21 20 19 18 19 18 17 16 13 11 13 14 16 16 13 12 12 12 12 12 11 11 11 11 10 10 9 8 8 8 8 8 9 8 8 6 4 3 3 3 4 5 5 5 3 5 6 6 6 6 5 5 4 4 6 6 7 8 9 11 11 11 10 11 11 11 12 12 12 12 12 12 12 11
18 18 17 16 16 17 17 16 18 21 23 23 21 19 20 20 19 18 16 14 13 13 16 19 18 13 11 11 10 10 11 10 9 9 11 12 10 10 10 9 8 9 9 9 9 8 6 4 3 3 2 3 4 6 6 3 5 7 7 6 6 5 4 4 4 5 7 8 8 9 11 11 11 10 10 10 10 11 11 12 11 10 9 9 9
18 18 17 16 17 17 16 17 21 23 23 22 21 20 21 21 20 18 16 16 16 16 19 19 15 12 11 9 6 5 6 6 5 4 7 11 10 10 11 9 9 10 10 9 9 8 7 6 4 3 3 2 2 5 7 5 3 6 6 6 5 4 4 4 3 5 6 7 8 10 11 10 10 10 10 10 11 11 12 12 11 9 8 8 9
19 19 18 18 19 18 16 19 24 24 23 23 22 21 22 22 21 20 18 18 17 18 20 18 15 15 11 6 3 3 3 3 4 3 4 7 7 8 9 9 8 8 10 9 8 8 7 6 5 3 3 2 2 4 6 5 4 5 5 6 5 2 4 4 3 4 6 8 10 11 11 10 10 11 11 11 10 10 10 10 9 7 7 8 9
19 19 19 19 20 18 17 21 25 25 24 24 23 22 22 22 22 22 22 21 19 19 19 16 20 19 9 2 2 3 2 3 5 4 3 4 4 6 7 7 6 5 7 8 7 7 7 6 5 4 3 3 3 3 4 5 6 5 4 6 6 2 2 5 4 4 7 9 11 11 11 11 10 9 8 8 7 7 7 7 7 6 6 6 6
18 19 20 20 20 19 19 23 26 26 25 24 23 21 21 22 23 23 24 23 21 21 19 16 20 20 11 5 3 2 2 4 6 4 4 4 4 5 5 5 5 5 6 7 8 7 6 5 5 4 3 3 3 3 3 5 7 7 5 6 7 3 2 4 6 5 7 9 11 12 11 9 8 7 6 5 4 5 6 6 6 6 6 5 4
17 19 21 21 20 19 21 24 26 26 24 22 21 21 21 22 23 23 24 23 22 22 20 19 21 16 10 8 5 3 5 7 6 2 3 4 4 4 4 4 5 6 6 7 8 7 6 6 5 5 4 3 4 3 3 4 6 7 7 7 6 4 2 4 7 7 6 9 10 11 9 7 7 6 4 3 4 5 6 7 6 5 5 4 4
19 21 23 22 21 21 23 25 25 24 22 20 19 20 21 21 22 22 23 23 22 23 22 22 22 16 10 9 4 3 10 11 6 3 3 4 4 5 5 5 5 5 5 6 7 7 6 6 5 5 5 4 4 3 2 3 4 6 8 8 7 5 4 4 6 8 6 8 10 8 7 7 6 5 4 5 7 7 6 7 8 6 5 4 3
19 21 23 22 23 24 24 25 24 22 20 19 19 19 20 20 21 22 23 23 22 22 23 24 23 18 14 9 3 5 12 11 8 7 5 3 5 5 5 4 5 5 5 5 6 8 7 6 5 5 6 5 4 4 3 4 4 5 7 8 8 7 5 4 5 9 9 8 8 7 6 6 6 5 7 7 6 5 4 7 8 6 5 4 3
19 19 22 23 24 25 24 25 24 21 19 18 18 18 20 21 21 22 22 23 22 21 23 25 24 21 18 11 5 9 11 7 8 9 6 4 4 4 5 5 5 5 5 4 5 6 6 5 5 5 5 5 5 5 4 5 5 5 5 7 8 8 7 5 4 9 11 8 7 8 7 7 7 7 7 6 4 4 4 6 8 8 6 4 5
20 20 22 23 23 24 24 24 23 20 18 17 18 19 19 20 20 21 21 22 21 19 19 22 23 21 19 14 10 12 10 5 8 10 5 4 4 5 7 6 4 5 4 4 4 5 5 4 4 3 3 3 4 4 4 4 4 5 5 6 8 9 8 8 6 8 12 11 9 8 7 7 8 8 7 6 5 5 6 6 8 9 7 5 6
20 21 22 22 22 24 23 22 20 19 18 17 19 20 19 18 19 19 20 20 19 17 16 18 21 20 18 16 14 12 10 6 10 13 9 5 5 5 8 7 5 6 4 4 3 4 4 4 4 3 3 3 4 4 3 4 4 5 6 6 7 9 10 9 8 8 12 13 11 8 7 9 10 8 6 7 6 6 7 7 7 8 7 6 6
19 21 22 21 22 24 22 20 19 18 17 17 19 19 17 17 18 18 18 18 17 16 15 16 19 20 19 17 15 12 11 9 10 14 13 10 9 7 8 7 5 5 5 5 4 4 3 4 4 4 4 4 5 4 4 5 6 6 7 7 7 8 10 10 9 9 11 12 11 9 8 11 11 7 6 6 6 7 8 8 8 8 8 7 7
19 21 22 20 20 22 21 19 18 17 16 17 18 17 15 16 17 17 17 16 16 15 15 15 16 18 18 17 15 12 11 10 9 12 14 12 11 9 8 7 5 4 5 5 5 4 4 4 4 4 4 4 4 4 5 6 7 7 8 8 8 9 10 10 10 11 12 12 9 8 7 10 10 7 6 6 8 9 9 8 8 9 9 9 8
19 20 20 19 18 19 18 17 15 15 16 16 17 16 15 15 16 16 15 15 14 14 14 14 14 14 15 16 16 13 11 11 9 11 14 13 12 12 10 7 5 4 3 4 4 4 5 6 5 4 3 3 3 3 3 5 6 7 8 9 9 10 10 10 9 10 14 12 7 6 8 10 9 8 7 7 9 9 8 8 8 9 9 9 9
18 18 18 17 17 16 16 15 14 15 16 16 16 16 15 15 15 14 13 14 14 14 14 14 14 13 13 14 14 13 12 11 10 11 14 14 13 16 16 9 4 3 4 3 4 6 7 7 6 5 4 3 3 5 5 5 5 5 7 8 9 8 9 9 7 7 10 8 5 8 9 9 9 8 7 7 8 7 6 7 8 8 9 9 8
15 16 16 16 16 16 15 14 14 15 16 16 16 16 16 16 15 13 12 13 12 12 13 13 13 12 12 12 12 12 11 11 10 9 12 13 12 15 18 14 8 4 3 3 4 6 9 9 7 6 6 5 5 5 4 4 3 3 5 5 5 5 6 7 6 5 5 4 5 8 8 8 9 7 6 6 6 6 6 6 7 7 8 7 6
15 15 16 16 16 16 15 15 15 15 16 16 16 16 17 16 14 12 12 12 11 11 11 11 11 11 11 11 11 10 10 10 10 9 10 12 13 14 16 17 13 7 3 4 5 7 9 10 8 6 5 6 6 3 1 1 1 1 1 2 2 2 4 6 6 4 4 4 6 8 7 7 8 7 6 6 5 5 5 6 7 7 6 6 5
16 16 16 16 16 15 15 15 15 15 15 16 15 14 14 13 12 11 11 12 11 11 11 10 11 11 10 10 9 9 9 9 9 9 10 12 13 14 15 17 15 10 7 4 4 8 11 11 10 6 3 4 4 2 2 3 3 3 4 5 4 3 3 5 4 3 4 4 5 6 6 7 7 7 7 6 5 5 6 6 6 6 6 5 4
16 16 15 16 15 15 14 14 15 15 14 14 13 11 11 11 11 10 10 11 11 12 11 11 11 10 10 9 8 8 7 8 8 8 9 11 12 14 15 17 16 12 10 6 1 6 12 11 10 7 3 3 3 3 4 4 5 5 6 6 5 4 4 4 4 3 4 5 5 5 6 8 8 8 7 6 6 6 6 6 6 6 5 4 4
15 15 15 16 15 14 14 14 15 14 13 13 12 11 11 11 10 10 10 10 11 12 11 11 10 9 9 9 9 8 7 7 8 7 8 10 11 14 15 16 17 14 10 6 2 3 11 11 8 7 5 3 3 4 4 5 5 4 4 4 4 4 3 3 4 5 6 6 6 6 8 9 10 9 8 7 7 6 6 6 6 6 5 4 4
14 16 17 16 15 15 14 14 14 13 13 13 12 12 12 11 11 10 10 10 11 11 11 11 10 9 9 9 9 8 8 8 8 7 8 9 11 13 14 16 19 17 12 8 4 4 8 11 8 7 7 5 4 5 5 4 5 4 4 4 4 4 4 5 5 6 7 8 7 8 9 11 10 9 9 9 8 8 8 7 7 6 6 5 4
15 17 18 17 17 16 15 14 13 13 13 12 13 13 13 12 11 10 10 10 11 11 10 10 10 9 9 9 9 9 8 8 8 7 8 9 10 13 15 17 19 18 14 10 6 5 8 11 10 9 9 7 6 5 5 5 5 5 5 6 6 6 7 7 8 9 9 9 9 10 11 12 12 11 11 11 11 10 9 9 8 8 7 6 6
16 18 19 18 17 16 15 14 14 14 13 12 13 14 13 12 11 10 11 11 10 10 9 8 9 8 8 9 9 9 9 8 8 8 8 8 10 12 14 17 18 18 16 13 9 7 8 10 11 11 10 9 8 6 6 6 6 7 7 8 8 8 9 9 10 11 11 11 11 12 14 15 14 14 13 13 13 12 11 11 10 10 9 9 9
18 19 19 18 18 17 16 15 15 15 13 13 13 14 13 12 11 11 11 11 11 9 8 7 8 8 8 9 9 9 9 8 8 9 9 9 11 12 14 15 17 17 17 15 13 10 9 10 11 12 11 10 9 8 7 8 9 9 9 10 10 11 11 12 12 13 13 13 13 14 16 17 16 16 16 15 15 15 14 13 13 13 12 12 13
19 19 19 19 19 18 18 16 16 15 14 14 14 14 13 12 11 11 11 11 10 8 7 7 7 7 8 9 10 10 9 9 9 10 10 9 10 11 13 13 15 16 17 17 15 13 11 11 11 12 12 11 10 10 10 10 11 11 12 12 13 13 14 14 14 14 15 15 16 16 18 19 19 19 18 18 18 18 17 17 16 16 16 16 16
19 18 18 20 21 20 18 16 16 15 15 15 15 14 13 12 11 11 10 9 8 7 8 8 7 7 8 9 10 10 9 10 10 10 10 10 9 10 11 12 13 14 16 17 17 15 13 11 11 11 12 13 13 12 12 12 12 12 13 13 15 15 16 16 16 16 16 17 17 18 19 21 22 22 21 21 21 21 20 20 20 20 20 19 19
19 18 17 18 20 18 15 14 14 15 16 16 15 14 13 12 11 10 10 9 8 7 8 8 8 7 8 10 10 10 9 9 9 9 10 10 10 10 10 11 13 14 15 16 16 16 14 12 11 11 12 12 13 13 12 12 12 13 14 15 16 17 17 18 18 17 17 18 19 20 21 22 23 24 24 24 24 24 24 24 24 24 23 23 23
20 19 17 17 17 14 13 13 14 15 17 16 15 14 13 11 10 10 9 9 9 8 7 8 8 7 8 10 11 9 8 7 6 6 6 7 7 6 6 7 9 11 13 14 14 15 15 12 11 11 11 12 12 12 11 12 14 15 16 16 18 18 18 18 19 18 18 19 20 21 22 24 25 27 27 28 28 28 28 28 28 28 28 28 27
19 18 17 17 16 14 13 13 14 15 16 16 14 13 12 10 10 9 9 10 10 9 9 9 8 8 9 11 12 11 10 9 9 8 7 6 6 6 6 5 5 6 8 10 11 13 13 12 11 10 10 11 12 13 14 14 16 16 15 15 18 19 18 19 20 20 19 20 21 22 23 24 26 28 29 30 31 31 31 32 32 33 32 32 31
17 17 16 16 15 14 15 14 13 15 15 15 14 13 11 10 9 10 10 11 11 11 12 13 12 12 13 15 15 15 14 14 13 12 11 9 9 9 9 7 5 4 4 5 6 8 10 11 12 11 11 11 13 14 15 16 16 15 14 14 16 16 16 17 19 19 18 18 20 22 23 23 25 27 29 31 32 33 34 35 35 36 35 35 34
16 15 16 15 14 14 15 14 14 15 15 14 14 13 10 8 9 10 13 14 14 15 15 17 19 19 19 19 17 16 15 13 12 11 10 9 9 8 7 6 5 3 2 2 4 6 8 9 11 11 12 12 12 12 13 13 14 14 15 15 16 15 14 14 16 16 14 13 15 18 21 21 20 22 25 28 30 33 34 34 35 35 35 34 34
14 15 15 15 14 13 13 13 14 14 14 13 13 12 10 9 9 11 16 18 18 19 20 21 22 21 19 18 16 14 12 11 10 8 8 8 8 7 6 4 3 3 2 1 2 4 5 7 8 9 10 9 9 8 9 10 10 12 14 14 15 16 15 14 15 15 14 13 13 15 20 21 19 19 22 23 25 26 27 28 29 29 30 30 30
14 15 14 14 13 12 11 12 13 14 13 12 11 11 11 11 11 14 19 20 21 22 23 22 20 17 15 14 12 12 11 9 8 7 7 7 7 6 5 3 2 1 1 1 1 1 1 2 2 3 3 3 3 2 4 5 7 8 10 11 12 12 12 13 14 15 15 14 13 13 18 22 20 19 22 23 23 21 20 21 23 24 24 24 24
14 15 13 12 12 11 11 12 12 12 12 11 11 12 13 14 16 19 22 22 23 24 21 18 16 13 12 11 11 11 11 9 9 8 7 6 5 5 4 3 3 2 1 1 1 2 2 3 3 3 3 1 0 1 2 4 5 5 6 7 7 7 8 9 11 12 13 14 12 10 12 16 17 17 19 20 20 18 16 15 15 17 17 17 18
14 15 13 12 12 12 12 12 11 11 11 12 13 14 16 18 19 21 23 24 24 22 19 16 14 13 12 11 10 10 10 9 8 7 6 5 4 3 3 2 2 2 2 2 2 2 2 2 3 3 2 1 0 1 2 3 4 4 5 5 5 6 6 7 8 9 9 10 9 6 7 11 14 14 16 16 15 14 13 11 11 11 11 12 13
15 16 16 14 14 15 14 13 13 12 13 14 16 18 21 22 23 23 24 25 23 20 16 14 13 13 12 10 9 9 9 8 7 6 5 4 3 2 2 2 2 2 2 3 3 3 3 2 2 2 1 1 1 1 2 2 2 3 3 4 4 3 3 4 5 6 6 7 8 6 7 9 11 12 13 13 13 12 12 12 11 10 10 10 10
18 19 20 18 17 17 17 16 16 16 17 16 18 21 22 23 24 24 24 23 20 18 15 14 13 12 12 10 8 7 5 4 4 3 3 3 3 4 4 3 3 3 3 3 3 2 2 2 2 1 1 2 2 2 2 2 3 3 3 3 3 3 4 3 3 5 5 5 6 5 5 7 9 10 10 10 11 11 11 11 11 10 9 8 7
22 24 24 23 22 21 20 19 18 19 19 17 16 17 18 19 20 22 22 21 20 18 17 15 12 10 10 8 6 5 3 1 1 1 1 1 1 3 4 5 4 4 5 4 3 3 3 3 3 3 2 3 3 3 4 4 5 5 5 5 6 5 5 3 2 4 4 4 5 5 5 7 9 10 10 9 8 7 7 9 10 11 10 8 6
25 26 25 23 24 23 21 19 18 18 17 15 13 12 12 12 12 13 15 14 14 15 15 14 12 10 9 8 6 5 3 2 1 0 0 1 1 2 4 4 5 6 6 6 5 5 5 4 4 4 3 3 4 4 4 5 5 5 6 6 7 7 6 5 4 4 3 4 6 7 6 7 9 10 10 8 4 3 6 9 11 12 11 9 5
Wind_Direction
203 202 201 201 200 190 182 180 182 186 183 175 171 169 170 168 161 157 155 149 144 146 153 152 154 162 162 155 151 152 151 148 145 142 141 142 138 134 148 151 128 124 125 123 125 116 107 102 102 102 100 100 96 96 97 95 97 99 96 90 84 89 95 91 88 88 88 90 87 85 83 83 89 88 85 83 82 82 81 82 83 81 79 79 78
212 209 207 204 204 199 189 184 186 191 191 182 174 173 175 175 169 168 166 158 154 149 157 160 158 167 170 162 157 160 160 156 153 152 147 143 143 146 156 148 131 137 127 119 126 118 111 107 105 104 100 94 90 93 97 98 100 102 96 91 89 94 97 88 83 81 83 97 92 84 82 85 93 90 87 88 85 83 81 81 83 81 76 75 76
219 215 210 206 205 203 196 193 195 197 196 190 181 178 180 181 177 178 175 165 159 146 153 166 164 170 174 169 164 166 167 163 161 162 159 153 155 154 147 139 138 143 133 124 127 121 118 112 103 105 102 96 98 99 97 98 100 102 98 93 94 97 96 89 82 75 74 93 97 88 86 91 97 95 93 91 87 85 83 80 81 82 81 75 72
218 220 215 208 206 204 201 200 204 203 200 195 189 187 188 187 184 184 180 170 166 154 156 172 174 175 176 173 172 171 170 168 167 167 166 161 157 152 140 134 136 141 138 134 133 127 122 115 112 116 106 94 103 105 97 99 97 97 97 94 94 93 93 89 80 79 83 91 96 95 93 95 99 97 95 91 88 85 81 81 83 85 84 78 75
214 222 222 214 208 204 202 202 205 206 204 199 195 198 198 193 189 187 183 175 171 163 162 175 181 178 176 177 175 174 173 170 170 170 169 162 154 149 144 141 141 145 147 145 142 134 128 124 122 116 100 97 108 100 91 98 98 96 95 92 94 92 91 91 83 78 82 87 92 95 92 91 95 96 94 91 88 84 80 83 85 85 82 78 77
214 220 223 219 214 206 202 201 203 206 206 203 200 203 204 200 195 190 184 179 175 169 170 178 180 178 176 178 177 175 175 172 170 169 167 161 153 152 152 153 152 151 156 158 151 138 133 123 115 105 97 110 115 97 95 103 102 99 95 90 93 93 93 93 87 80 81 85 89 91 89 88 93 96 95 93 89 85 83 85 85 85 82 80 80
216 217 220 222 219 210 204 200 200 205 207 205 203 203 204 203 199 192 183 177 176 171 175 180 177 175 175 175 177 176 176 176 171 167 167 162 155 156 156 157 162 165 165 160 149 139 134 120 113 105 103 116 114 108 109 103 101 102 98 95 95 94 96 97 92 88 88 88 90 93 92 91 93 94 96 94 90 87 86 86 88 89 87 85 84
217 217 219 221 222 215 208 202 199 201 204 205 203 200 201 201 199 197 188 177 175 173 176 178 170 169 173 175 176 178 178 178 173 166 166 164 159 158 157 159 167 171 160 151 139 126 127 125 118 107 103 105 103 112 113 100 100 105 104 101 100 96 96 101 99 95 92 91 92 93 93 93 93 94 96 95 91 89 88 86 87 90 92 91 89
221 220 220 220 223 221 211 205 203 204 205 205 202 199 201 200 193 195 195 184 176 172 169 166 157 160 169 173 176 178 179 178 174 170 169 167 163 159 158 165 170 167 158 150 141 129 130 128 118 115 115 104 97 103 106 109 109 109 106 103 108 104 99 102 101 99 100 98 96 95 96 96 95 95 97 96 93 91 90 88 89 91 94 93 90
225 223 221 221 225 223 211 206 211 214 211 209 206 203 205 204 192 188 194 191 181 174 168 161 152 153 161 169 176 179 180 180 177 177 176 171 167 161 159 168 172 168 162 158 155 146 140 133 119 122 124 115 111 97 96 113 120 119 113 101 105 107 106 109 107 109 112 111 107 103 100 98 99 98 96 95 93 92 92 92 92 91 94 93 91
225 222 220 221 224 220 210 205 218 223 213 209 210 209 206 200 193 187 187 190 189 179 167 158 152 152 157 164 174 180 182 184 184 186 184 180 176 170 168 172 174 174 170 169 172 166 155 145 134 137 139 136 134 121 113 116 117 123 121 103 102 110 112 114 117 121 120 117 114 110 107 105 105 101 97 96 96 96 93 90 89 90 94 94 89
227 224 221 222 221 217 209 205 218 221 210 208 210 210 202 194 191 189 184 178 176 172 161 154 148 148 156 164 173 183 185 185 191 195 193 193 188 182 186 185 181 182 180 182 187 183 174 169 172 173 171 162 155 151 145 123 110 117 119 114 111 115 120 114 117 121 118 120 120 117 116 114 112 107 103 101 101 102 96 91 92 91 91 90 88
232 229 225 222 218 214 208 207 217 216 208 207 208 205 198 192 190 189 188 175 163 164 160 151 142 139 147 152 157 170 179 186 197 202 200 201 196 192 198 199 197 196 192 194 196 198 198 197 208 214 206 189 176 176 171 147 115 114 121 131 124 118 127 125 121 127 131 133 131 126 122 120 118 114 112 110 108 106 101 100 99 92 87 86 87
237 232 228 222 220 216 209 209 216 215 207 204 204 200 195 194 192 185 182 175 165 163 161 153 144 142 140 130 122 132 154 175 182 182 194 200 199 200 206 211 217 209 199 203 206 209 213 212 220 228 227 220 186 188 186 176 130 119 135 150 135 123 138 146 147 150 152 146 139 135 131 129 127 126 123 119 114 105 101 103 100 92 88 84 83
241 235 229 223 224 221 213 212 216 214 208 202 200 199 198 200 198 189 175 164 162 167 168 164 155 146 138 135 134 120 125 148 136 125 178 193 196 204 208 219 234 216 199 204 211 214 218 216 218 218 229 232 185 181 185 178 157 147 154 150 146 146 141 153 182 179 164 149 142 140 136 133 131 129 126 120 114 103 99 104 100 93 90 86 85
243 239 231 224 223 223 218 214 213 212 207 203 201 203 202 200 197 192 180 164 160 171 177 175 163 153 143 128 123 132 174 170 139 134 178 190 206 208 203 213 232 226 208 207 208 210 215 213 211 210 217 219 191 175 175 171 166 173 174 153 161 197 149 161 191 179 159 149 142 138 133 130 128 125 125 121 116 109 107 109 105 103 102 95 90
246 241 231 223 221 223 222 215 212 211 206 201 202 205 204 201 198 195 189 179 170 173 182 183 174 165 155 142 130 156 209 163 148 155 181 196 216 204 194 201 208 222 229 222 216 212 212 209 212 217 215 201 187 178 180 178 172 178 187 173 174 192 166 172 185 168 153 151 145 140 136 134 134 135 138 136 127 122 118 115 117 122 118 104 89
238 234 229 222 219 220 221 216 212 211 206 201 203 206 205 203 202 199 197 194 181 175 181 184 182 181 170 161 164 190 174 152 151 167 179 199 211 191 193 212 213 222 231 224 217 215 221 220 218 221 219 201 182 177 185 187 182 185 193 192 186 192 206 193 183 171 154 149 147 146 147 150 152 153 154 147 137 134 133 131 134 140 135 119 89
229 227 227 221 214 214 217 216 213 210 208 206 208 210 209 208 205 203 201 198 188 180 182 182 185 192 185 166 151 165 166 160 161 156 156 185 192 192 212 227 224 222 219 215 214 218 228 227 218 216 217 211 199 191 197 205 197 197 202 204 200 199 221 222 185 181 185 169 161 164 169 166 166 163 150 137 136 138 136 136 145 158 152 131 104
225 222 224 218 212 212 215 214 211 209 210 213 216 215 213 210 206 204 202 201 198 192 187 184 187 190 187 178 142 150 167 173 179 163 144 158 175 191 205 208 208 204 210 218 218 223 231 234 226 217 218 220 223 222 224 230 221 213 215 212 210 209 219 241 193 184 206 208 185 185 186 174 170 165 155 148 148 152 143 135 142 157 162 144 124
220 220 219 214 211 211 213 213 210 208 212 218 221 220 216 212 208 205 204 204 206 204 196 192 192 190 189 190 163 157 167 177 179 161 139 154 175 178 167 170 181 183 205 222 217 219 222 233 233 219 221 222 227 235 236 237 228 225 231 220 216 219 223 237 210 189 207 226 213 196 190 179 172 167 166 165 163 162 151 140 135 139 150 151 137
210 216 214 208 207 209 213 214 212 210 211 216 223 224 218 216 215 211 209 209 207 208 207 202 199 194 194 193 172 162 159 154 173 168 144 144 165 172 171 170 155 152 186 215 210 218 220 235 241 222 225 231 238 249 247 243 230 226 240 232 220 223 228 229 218 201 205 220 228 211 190 179 172 167 164 162 162 159 154 149 137 135 144 152 144
209 211 209 204 203 207 213 213 210 209 209 212 222 225 222 219 219 215 212 212 210 210 211 208 204 200 202 204 197 187 181 184 189 184 175 153 144 163 175 174 150 145 179 207 200 213 230 243 250 251 255 254 259 270 265 249 234 232 241 241 230 229 235 234 225 214 210 218 232 231 203 181 170 164 155 154 160 160 155 153 148 145 149 151 147
213 208 205 204 202 205 209 206 205 207 206 212 222 226 223 218 217 215 212 211 212 213 211 210 208 205 207 213 214 211 212 223 213 199 195 176 154 152 163 163 146 146 176 199 207 222 238 244 250 261 267 272 271 264 258 248 239 241 241 240 239 235 237 238 230 221 216 220 233 244 214 179 166 162 156 157 159 156 160 162 158 153 150 148 145
212 206 202 202 201 200 200 200 204 206 205 213 222 220 213 210 210 210 209 208 211 213 211 211 213 214 216 216 216 219 225 236 230 210 199 177 154 146 150 153 137 129 168 188 200 223 246 251 253 259 255 264 273 254 237 235 235 240 240 237 237 236 236 237 233 225 221 222 237 253 214 171 161 162 160 159 157 159 167 168 161 154 149 145 142
210 199 191 191 193 194 196 200 205 206 208 216 216 210 204 203 203 205 206 206 209 212 215 218 220 223 225 220 218 223 231 235 229 210 197 184 167 153 145 140 132 131 151 172 189 212 241 253 254 260 256 253 270 271 244 236 238 239 237 234 233 236 239 236 234 231 224 220 222 220 191 168 166 170 169 170 168 171 175 169 161 156 151 147 146
203 187 179 183 187 190 198 203 206 208 213 214 208 204 204 204 203 205 208 208 210 212 217 222 225 228 228 224 224 229 233 230 224 212 205 203 191 170 158 145 135 149 151 168 214 223 234 249 254 253 255 260 269 275 271 258 249 239 233 233 232 234 237 232 228 222 216 210 189 185 179 172 178 182 182 183 180 182 178 169 166 161 158 157 159
198 184 181 187 188 190 197 203 207 211 211 210 206 202 202 204 204 207 211 212 213 214 216 220 224 228 229 227 229 230 228 225 219 212 210 214 208 188 174 164 156 155 163 189 224 223 228 241 249 249 247 260 272 271 273 266 249 238 232 231 230 228 224 215 206 198 202 206 195 189 184 183 188 192 193 189 186 185 176 172 173 168 169 169 169
196 188 185 189 190 192 199 202 205 209 208 208 209 202 197 200 202 206 213 215 215 214 215 217 219 223 226 228 229 226 221 219 218 216 214 214 210 201 194 185 172 154 157 204 222 216 220 230 237 246 250 260 273 267 240 197 171 177 184 164 156 183 195 188 188 202 213 215 201 191 192 198 199 200 195 187 182 178 173 172 172 171 174 175 175
198 194 192 192 190 191 198 201 202 205 206 207 211 204 194 197 201 206 214 215 215 213 211 212 210 212 217 218 218 217 218 218 219 218 214 215 211 205 206 201 188 175 171 181 214 212 211 221 230 235 254 266 259 206 139 121 112 104 103 102 104 117 144 157 165 190 198 196 197 198 210 215 208 201 193 185 180 176 172 170 169 172 175 176 179
200 201 199 193 189 189 194 196 197 200 204 207 210 202 193 198 203 206 212 212 212 210 208 208 208 208 211 208 204 207 216 216 212 210 208 210 213 208 205 202 197 196 190 172 155 209 207 215 226 223 227 261 232 180 144 132 123 112 109 109 114 121 122 133 147 169 183 194 205 215 223 217 205 197 192 190 186 180 177 171 167 169 168 167 169
201 203 199 191 186 186 186 189 191 194 196 199 200 196 194 199 200 200 203 203 204 204 203 205 207 211 214 211 208 208 211 209 203 202 203 205 209 209 207 206 204 207 206 185 126 176 199 209 221 216 210 227 220 188 166 152 146 140 136 135 139 147 154 161 170 186 197 208 219 226 223 211 202 200 198 199 198 194 190 180 172 171 168 167 167
202 201 195 188 181 178 178 181 185 187 190 191 191 192 192 193 194 196 197 196 198 200 201 206 209 213 214 209 206 206 207 209 209 208 203 199 203 206 210 212 211 212 212 199 162 146 186 201 211 211 208 215 216 196 188 179 173 177 178 176 183 190 200 207 210 214 218 223 228 227 218 209 206 207 208 209 211 208 202 193 189 188 187 192 199
203 198 193 185 175 172 173 177 182 186 191 191 189 190 191 193 196 200 202 200 200 202 205 209 211 211 209 206 206 207 208 208 209 208 201 195 198 203 208 212 214 216 216 211 195 167 177 196 205 207 207 214 219 205 201 202 199 207 213 213 217 217 220 225 227 230 232 233 232 226 217 213 213 216 218 220 220 217 213 208 208 210 215 226 234
204 199 194 184 172 169 171 175 181 185 188 190 190 192 195 201 206 206 204 200 199 201 201 202 204 202 200 203 206 207 204 199 198 198 198 198 200 202 206 210 215 220 221 220 218 202 187 195 206 210 209 213 219 213 208 210 212 221 229 233 235 232 230 231 231 233 234 235 234 227 220 217 220 223 225 227 227 225 223 223 225 230 236 244 250
206 199 192 183 173 170 170 173 180 184 187 189 190 195 200 207 209 199 192 190 190 192 191 190 194 195 196 197 198 197 194 190 191 194 197 199 200 201 206 211 216 222 224 226 229 225 209 202 208 215 215 216 221 219 213 214 218 224 231 236 239 238 236 235 234 234 234 235 235 231 225 224 225 228 230 231 233 232 233 235 239 243 248 254 257
202 196 191 183 179 176 174 177 183 187 192 193 193 197 201 201 195 185 180 182 186 192 194 191 191 195 195 191 188 189 190 188 188 192 196 196 196 201 208 212 217 223 226 229 231 231 229 219 211 213 215 215 219 221 220 218 221 226 232 236 239 240 241 240 239 240 239 238 238 236 232 229 230 233 234 236 237 238 240 244 247 250 254 257 260
192 189 189 187 184 182 180 183 191 195 196 196 196 196 194 189 183 180 181 185 192 199 196 190 191 194 193 191 188 186 185 189 192 193 195 197 200 208 216 220 224 225 227 229 229 229 233 230 219 215 217 216 216 220 223 223 225 231 237 242 245 245 246 246 246 246 246 245 244 242 238 235 235 237 239 241 241 243 245 248 251 254 256 259 261
188 186 190 190 186 184 183 188 196 199 196 192 191 190 188 186 185 186 192 200 208 209 201 196 192 192 196 193 182 173 176 189 198 200 199 204 212 222 230 233 233 231 229 228 227 227 230 230 223 220 221 220 218 220 225 226 229 235 240 245 250 251 251 253 254 253 251 251 251 249 246 242 240 240 243 245 246 247 249 251 253 256 258 261 262
190 188 190 192 187 183 184 188 192 194 192 190 190 189 192 193 194 199 206 212 210 199 189 183 180 185 194 183 165 160 172 180 180 181 184 188 193 195 201 214 224 229 230 229 228 227 227 225 223 223 223 222 218 219 223 224 227 234 239 244 251 256 256 258 260 260 258 257 256 255 252 249 246 245 245 247 248 249 251 253 255 257 259 260 262
192 191 189 192 191 185 183 184 186 189 189 191 190 189 191 191 194 203 203 197 189 176 160 154 157 166 168 158 146 142 143 134 122 118 121 124 125 119 118 136 173 201 214 220 222 222 219 218 219 219 217 218 218 218 221 226 230 237 241 244 251 258 261 262 265 266 265 266 264 262 260 256 253 252 251 251 253 253 253 255 257 259 261 262 263
193 194 189 190 188 184 182 179 180 182 184 188 188 186 185 184 189 193 183 172 167 159 148 141 138 138 138 135 130 126 123 117 110 107 105 103 97 90 91 100 114 136 168 190 205 212 216 219 221 219 217 222 226 225 229 234 238 243 248 250 255 262 265 270 275 276 276 276 275 274 273 269 264 262 259 260 262 260 258 259 261 262 263 265 266
192 191 187 184 180 179 179 176 176 177 179 184 185 184 185 187 191 186 172 162 153 147 143 138 132 130 130 128 124 121 119 114 110 108 107 103 96 90 89 93 95 96 116 168 195 209 219 225 226 226 230 238 242 241 244 246 247 251 256 258 262 266 270 276 282 286 291 294 289 288 290 288 282 276 274 273 273 269 265 266 267 268 269 270 270
187 183 178 175 173 175 178 177 178 178 180 185 187 187 189 190 189 178 166 157 147 141 139 136 133 131 129 127 124 121 118 115 112 111 109 106 102 99 95 89 85 85 87 124 189 208 221 230 232 232 239 252 260 257 256 258 261 264 264 264 265 266 266 266 271 281 293 299 297 296 297 300 297 291 290 290 284 278 277 279 280 280 280 279 279
182 176 170 168 170 175 178 180 181 182 186 191 190 189 189 185 179 167 158 151 143 138 137 134 132 131 129 128 127 124 122 120 116 110 104 101 99 98 97 96 94 91 81 84 103 124 164 198 208 210 223 252 280 280 267 268 279 284 280 277 276 273 272 272 278 289 296 297 297 292 293 300 299 293 296 298 294 291 293 294 291 290 289 289 288
174 169 166 166 167 168 173 177 179 182 187 188 185 185 183 177 169 159 151 146 140 136 135 132 130 127 122 120 120 120 120 116 111 106 100 95 95 95 102 114 125 136 148 153 126 89 93 106 104 107 125 155 215 288 275 273 289 303 300 296 297 297 296 296 300 305 305 305 304 287 287 306 308 298 301 306 304 305 309 306 300 296 295 295 293
156 157 157 160 159 158 161 166 167 168 171 171 169 168 165 163 162 156 149 145 142 138 137 136 133 128 124 122 120 119 118 112 105 101 96 88 85 91 103 114 116 122 132 140 143 129 115 106 92 92 100 100 343 298 300 295 303 316 311 305 308 312 312 309 309 313 315 319 320 294 284 314 320 312 314 318 312 312 316 314 309 305 303 301 299
135 140 142 143 144 144 147 152 153 146 143 148 151 149 148 150 154 154 151 148 146 143 140 138 138 137 137 135 129 123 118 110 103 99 98 100 103 113 127 125 114 112 108 105 106 105 99 86 70 59 31 2 330 319 323 315 316 325 313 305 312 323 332 324 319 332 340 330 324 307 285 302 319 323 324 324 319 316 315 315 316 316 314 311 308
119 120 122 123 124 128 129 132 135 131 127 132 140 142 144 146 149 152 153 152 150 148 145 144 146 145 141 136 132 127 119 103 89 80 87 105 119 129 135 138 128 115 102 92 78 55 44 45 62 68 33 18 23 27 38 33 28 29 9 354 10 15 15 14 349 348 350 333 324 317 294 300 323 331 329 325 320 317 318 323 327 328 324 318 311
111 109 113 113 112 114 114 113 117 119 119 122 132 141 146 149 150 149 148 148 147 146 145 144 145 144 141 139 141 145 148 132 10 342 9 51 98 124 133 139 131 112 99 93 83 70 66 70 85 86 59 43 39 33 35 37 39 42 39 38 43 36 32 42 11 348 5 26 20 2 331 319 327 331 332 330 321 317 330 338 342 342 337 327 312
103 102 105 102 98 101 104 106 110 113 113 114 119 129 138 143 144 143 139 133 129 133 139 143 147 151 152 150 151 151 148 141 145 209 230 265 210 139 136 139 124 102 88 84 86 96 105 97 84 76 63 53 46 40 39 38 35 36 36 38 41 36 36 46 35 18 32 43 20 3 339 322 326 333 339 341 328 325 344 344 341 341 336 326 313